Flag for U.S.A. Weather past 2 weeks in Minot, North Dakota, U.S.A.

Now
26 °F

Ice fog.


Feels Like: 16 °F
Forecast: 30 / 64 °F
Wind: 10 mph from Southeast

Location: Minot International Airport

Current Time: Mar 28, 2015 at 6:45:15 AM

Latest Report: Mar 28, 2015 at 6:01 AM


Visibility: 0 mi

Pressure: 29.91 "Hg

Humidity: 92%

Dew point: 24 °F

Location of MinotLocation

Historic Weather in Minot — Graph

°F

Minot temperature yesterday

Maximum temperature yesterday: 51 °F (at 3:54 PM)
Minimum temperature yesterday: 27 °F (at 12:54 AM)
Average temperature yesterday: 35 °F

Past Weeks' High & Low Weather Summary

 TemperatureHumidityPressure
High67 °F (Mar 14, 3:54 PM)96% (Mar 18, 10:54 PM)30.60 "Hg (Mar 18, 10:54 PM)
Low19 °F (Mar 17, 7:54 AM)22% (Mar 15, 5:54 PM)29.57 "Hg (Mar 15, 1:54 AM)
Average35 °F70%30.11 "Hg
* Reported Mar 13 6:54 AM — Mar 28 6:01 AM, Minot, Weather by CustomWeather, © 2015

Note: Actual official high and low records may vary slightly from our data, if they occured in-between our weather recording intervals... More about our weather records

Advertising

Minot weather history for previous 24 hours

 ConditionsComfort  
Time TempWeatherWind HumidityBarometerVisibility
6:01 AM
Sat, Mar 28
26 °FIce fog.10 mph92%29.91 "Hg0 mi
4:54 AM27 °FIce fog.8 mph92%29.97 "Hg4 mi
3:54 AM25 °FIce fog.No wind92%29.98 "Hg6 mi
2:54 AM27 °FClear.5 mph92%30.00 "Hg7 mi
1:54 AM29 °FClear.3 mph93%30.02 "Hg7 mi
12:54 AM32 °FOvercast.3 mph88%30.01 "Hg10 mi
11:54 PM
Fri, Mar 27
33 °FOvercast.7 mph88%30.01 "Hg10 mi
10:54 PM34 °FOvercast.6 mph85%30.01 "Hg10 mi
9:54 PM35 °FOvercast.3 mph82%30.01 "Hg10 mi
8:54 PM36 °FOvercast.5 mph79%30.00 "Hg10 mi
7:54 PM38 °FPartly sunny.10 mph79%29.98 "Hg10 mi
6:54 PM45 °FScattered clouds.12 mph68%29.96 "Hg10 mi
5:54 PM50 °FSunny.14 mph61%29.92 "Hg10 mi
4:54 PM51 °FPartly sunny.17 mph59%29.90 "Hg10 mi
3:54 PM51 °FSunny.10 mph59%29.89 "Hg10 mi
2:54 PM49 °FMostly cloudy.10 mph59%29.91 "Hg10 mi
1:54 PM43 °FScattered clouds.15 mph68%29.93 "Hg10 mi
1:03 PM38 °FBroken clouds.16 mph73%29.90 "Hg10 mi
12:54 PM38 °FPartly sunny.13 mph73%29.95 "Hg10 mi
11:54 AM33 °FOvercast.17 mph78%29.99 "Hg10 mi
10:54 AM32 °FMore clouds than sun.17 mph79%30.00 "Hg10 mi
9:54 AM30 °FLight snow. Overcast.17 mph79%30.02 "Hg8 mi
8:54 AM28 °FLight snow. Ice fog.14 mph89%30.07 "Hg1 mi
7:57 AM28 °FLight snow. Ice fog.10 mph85%30.02 "Hg1 mi
7:03 AM28 °FLight snow. Ice fog.12 mph85%30.04 "Hg2 mi
6:54 AM28 °FLight snow. Ice fog.14 mph85%30.11 "Hg3 mi
Weather by CustomWeather, © 2015

See weather overviewHow to use our weather pages